Time,TemperatureF,DewpointF,PressureIn,WindDirection,WindDirectionDegrees,WindSpeedMPH,WindSpeedGustMPH,Humidity,HourlyPrecipIn,Conditions,Clouds,dailyrainin,SoftwareType,DateUTC
2013-06-08 00:22:00,70.2,68.4,28.70,West,270,0.0,0.0,94,0.00,,---,0.66,VWS V14.00,2013-06-08 04:22:00,
2013-06-08 00:28:00,70.2,68.4,28.70,West,270,0.0,0.0,94,0.00,,---,0.00,VWS V14.00,2013-06-08 04:28:00,
2013-06-08 00:31:00,70.2,68.4,28.70,West,270,0.0,0.0,94,0.00,,---,0.00,VWS V14.00,2013-06-08 04:31:00,
2013-06-08 00:34:00,70.0,68.2,28.70,West,270,0.0,0.0,94,0.00,,---,0.00,VWS V14.00,2013-06-08 04:34:00,
2013-06-08 00:37:00,70.0,68.2,28.70,West,270,0.0,0.0,94,0.00,,---,0.00,VWS V14.00,2013-06-08 04:37:00,
2013-06-08 00:43:00,70.0,68.2,28.70,West,270,0.0,0.0,94,0.00,,---,0.00,VWS V14.00,2013-06-08 04:43:00,
2013-06-08 00:49:00,70.0,68.2,28.70,West,270,0.0,0.0,94,0.00,,---,0.00,VWS V14.00,2013-06-08 04:49:00,
2013-06-08 00:55:00,70.0,68.2,28.70,West,270,0.0,0.0,94,0.00,,---,0.00,VWS V14.00,2013-06-08 04:55:00,
2013-06-08 01:01:00,70.0,68.2,28.70,West,270,0.0,0.0,94,0.00,,---,0.00,VWS V14.00,2013-06-08 05:01:00,
2013-06-08 01:07:00,70.0,68.2,28.70,West,270,0.0,0.0,94,0.00,,---,0.00,VWS V14.00,2013-06-08 05:07:00,
2013-06-08 01:10:00,70.0,68.2,28.70,West,270,0.0,0.0,94,0.00,,---,0.00,VWS V14.00,2013-06-08 05:10:00,
2013-06-08 01:16:00,70.0,68.2,28.70,West,270,0.0,0.0,94,0.00,,---,0.00,VWS V14.00,2013-06-08 05:16:00,
2013-06-08 01:22:00,69.8,68.0,28.70,West,270,0.0,0.0,94,0.00,,---,0.00,VWS V14.00,2013-06-08 05:22:00,
2013-06-08 01:28:00,69.8,68.0,28.70,West,270,0.0,0.0,94,0.00,,---,0.00,VWS V14.00,2013-06-08 05:28:00,
2013-06-08 01:34:00,69.6,67.8,28.70,West,270,0.0,0.0,94,0.00,,---,0.00,VWS V14.00,2013-06-08 05:34:00,
2013-06-08 01:40:00,69.4,67.6,28.70,West,270,0.0,0.0,94,0.00,,---,0.00,VWS V14.00,2013-06-08 05:40:00,
2013-06-08 01:47:00,69.4,67.6,28.70,West,270,0.0,0.0,94,0.00,,---,0.00,VWS V14.00,2013-06-08 05:47:00,
2013-06-08 01:53:00,69.3,67.5,28.70,West,270,0.0,0.0,94,0.00,,---,0.00,VWS V14.00,2013-06-08 05:53:00,
2013-06-08 01:59:00,69.3,67.5,28.70,West,270,0.0,0.0,94,0.00,,---,0.00,VWS V14.00,2013-06-08 05:59:00,
2013-06-08 02:05:00,69.1,67.3,28.70,West,270,0.0,0.0,94,0.00,,---,0.00,VWS V14.00,2013-06-08 06:05:00,
2013-06-08 02:11:00,69.1,67.3,28.70,West,270,0.0,0.0,94,0.00,,---,0.00,VWS V14.00,2013-06-08 06:11:00,
2013-06-08 02:17:00,68.9,67.1,28.70,West,270,0.0,0.0,94,0.00,,---,0.00,VWS V14.00,2013-06-08 06:17:00,
2013-06-08 02:23:00,68.9,67.1,28.70,West,270,0.0,0.0,94,0.00,,---,0.00,VWS V14.00,2013-06-08 06:23:00,
2013-06-08 02:29:00,68.9,67.1,28.70,WNW,292,0.0,0.0,94,0.00,,---,0.00,VWS V14.00,2013-06-08 06:29:00,
2013-06-08 02:35:00,68.7,66.9,28.70,WNW,292,0.0,0.0,94,0.00,,---,0.00,VWS V14.00,2013-06-08 06:35:00,
2013-06-08 02:41:00,68.7,66.9,28.70,WNW,292,0.0,0.0,94,0.00,,---,0.00,VWS V14.00,2013-06-08 06:41:00,
2013-06-08 02:47:00,68.7,66.9,28.70,WNW,292,0.0,0.0,94,0.00,,---,0.00,VWS V14.00,2013-06-08 06:47:00,
2013-06-08 02:53:00,68.7,66.9,28.70,WNW,292,0.0,0.0,94,0.04,,---,0.04,VWS V14.00,2013-06-08 06:53:00,
2013-06-08 02:59:00,68.7,66.9,28.70,WNW,292,0.0,0.0,94,0.04,,---,0.04,VWS V14.00,2013-06-08 06:59:00,
2013-06-08 03:05:00,68.7,66.9,28.70,WNW,292,0.0,0.0,94,0.04,,---,0.04,VWS V14.00,2013-06-08 07:05:00,
2013-06-08 03:11:00,68.7,67.2,28.70,WNW,292,0.0,0.0,95,0.04,,---,0.04,VWS V14.00,2013-06-08 07:11:00,
2013-06-08 03:17:00,68.9,67.4,28.70,WNW,292,0.0,0.0,95,0.04,,---,0.04,VWS V14.00,2013-06-08 07:17:00,
2013-06-08 03:23:00,68.9,67.4,28.70,WNW,292,0.0,0.0,95,0.04,,---,0.04,VWS V14.00,2013-06-08 07:23:00,
2013-06-08 03:29:00,68.7,66.9,28.70,WNW,292,0.0,0.0,94,0.04,,---,0.04,VWS V14.00,2013-06-08 07:29:00,
2013-06-08 03:35:00,68.7,66.9,28.70,WNW,292,0.0,0.0,94,0.04,,---,0.04,VWS V14.00,2013-06-08 07:35:00,
2013-06-08 03:41:00,68.9,67.4,28.70,WNW,292,0.0,0.0,95,0.04,,---,0.04,VWS V14.00,2013-06-08 07:41:00,
2013-06-08 03:47:00,68.7,67.2,28.70,WNW,292,0.0,0.0,95,0.04,,---,0.04,VWS V14.00,2013-06-08 07:47:00,
2013-06-08 03:53:00,68.5,67.1,28.70,WNW,292,0.0,0.0,95,0.04,,---,0.04,VWS V14.00,2013-06-08 07:53:00,
2013-06-08 03:59:00,68.7,67.2,28.70,WNW,292,0.0,0.0,95,0.04,,---,0.04,VWS V14.00,2013-06-08 07:59:00,
2013-06-08 04:05:00,68.7,67.5,28.70,WNW,292,0.0,0.0,96,0.00,,---,0.04,VWS V14.00,2013-06-08 08:05:00,
2013-06-08 04:11:00,68.5,67.4,28.70,WNW,292,0.0,0.0,96,0.00,,---,0.04,VWS V14.00,2013-06-08 08:11:00,
2013-06-08 04:17:00,68.5,67.7,28.70,WNW,292,0.0,0.0,97,0.00,,---,0.04,VWS V14.00,2013-06-08 08:17:00,
2013-06-08 04:23:00,68.5,67.7,28.70,WNW,292,0.0,0.0,97,0.00,,---,0.04,VWS V14.00,2013-06-08 08:23:00,
2013-06-08 04:29:00,68.5,67.7,28.70,NW,315,0.0,0.0,97,0.00,,---,0.04,VWS V14.00,2013-06-08 08:29:00,
2013-06-08 04:35:00,68.5,67.7,28.70,NW,315,0.0,0.0,97,0.00,,---,0.04,VWS V14.00,2013-06-08 08:35:00,
2013-06-08 04:41:00,68.5,68.0,28.70,NW,315,0.0,0.0,98,0.00,,---,0.04,VWS V14.00,2013-06-08 08:41:00,
2013-06-08 04:47:00,68.5,68.0,28.70,NW,315,0.0,0.0,98,0.00,,---,0.04,VWS V14.00,2013-06-08 08:47:00,
2013-06-08 04:53:00,68.5,68.0,28.70,NW,315,0.0,0.0,98,0.00,,---,0.04,VWS V14.00,2013-06-08 08:53:00,
2013-06-08 04:59:00,68.5,68.0,28.73,NW,315,0.0,0.0,98,0.00,,---,0.04,VWS V14.00,2013-06-08 08:59:00,
2013-06-08 05:06:00,68.5,68.0,28.73,NW,315,0.0,0.0,98,0.00,,---,0.04,VWS V14.00,2013-06-08 09:06:00,
2013-06-08 05:12:00,68.5,68.0,28.73,NW,315,0.0,0.0,98,0.00,,---,0.04,VWS V14.00,2013-06-08 09:12:00,
2013-06-08 05:18:00,68.5,68.0,28.73,NW,315,0.0,0.0,98,0.00,,---,0.04,VWS V14.00,2013-06-08 09:18:00,
2013-06-08 05:24:00,68.4,67.8,28.73,NW,315,0.0,0.0,98,0.00,,---,0.04,VWS V14.00,2013-06-08 09:24:00,
2013-06-08 05:30:00,68.5,68.0,28.73,NW,315,0.0,0.0,98,0.00,,---,0.04,VWS V14.00,2013-06-08 09:30:00,
2013-06-08 05:36:00,68.4,67.5,28.73,NW,315,0.0,0.0,97,0.00,,---,0.04,VWS V14.00,2013-06-08 09:36:00,
2013-06-08 05:42:00,68.4,67.5,28.73,NW,315,0.0,0.0,97,0.00,,---,0.04,VWS V14.00,2013-06-08 09:42:00,
2013-06-08 05:48:00,68.4,67.5,28.73,NW,315,0.0,0.0,97,0.00,,---,0.04,VWS V14.00,2013-06-08 09:48:00,
2013-06-08 05:54:00,68.2,67.3,28.73,NW,315,0.0,0.0,97,0.00,,---,0.04,VWS V14.00,2013-06-08 09:54:00,
2013-06-08 06:00:00,68.2,67.3,28.73,WNW,292,0.0,0.0,97,0.00,,---,0.04,VWS V14.00,2013-06-08 10:00:00,
2013-06-08 06:06:00,68.2,67.3,28.73,WNW,292,0.0,0.0,97,0.00,,---,0.04,VWS V14.00,2013-06-08 10:06:00,
2013-06-08 06:12:00,68.0,66.8,28.73,WNW,292,0.0,0.0,96,0.00,,---,0.04,VWS V14.00,2013-06-08 10:12:00,
2013-06-08 06:18:00,68.0,66.8,28.73,WNW,292,0.0,0.0,96,0.00,,---,0.04,VWS V14.00,2013-06-08 10:18:00,
2013-06-08 06:24:00,67.8,66.6,28.73,WNW,292,0.0,0.0,96,0.00,,---,0.04,VWS V14.00,2013-06-08 10:24:00,
2013-06-08 06:30:00,67.8,66.6,28.76,WNW,292,0.0,0.0,96,0.00,,---,0.04,VWS V14.00,2013-06-08 10:30:00,
2013-06-08 06:36:00,67.8,66.6,28.76,WNW,292,0.0,0.0,96,0.00,,---,0.04,VWS V14.00,2013-06-08 10:36:00,
2013-06-08 06:42:00,67.6,66.5,28.76,WNW,292,0.0,0.0,96,0.00,,---,0.04,VWS V14.00,2013-06-08 10:42:00,
2013-06-08 06:48:00,67.6,66.5,28.76,WNW,292,0.0,0.0,96,0.00,,---,0.04,VWS V14.00,2013-06-08 10:48:00,
2013-06-08 06:54:00,67.8,66.6,28.76,WNW,292,0.0,0.0,96,0.00,,---,0.04,VWS V14.00,2013-06-08 10:54:00,
2013-06-08 07:00:00,67.8,66.6,28.76,WNW,292,0.0,0.0,96,0.00,,---,0.04,VWS V14.00,2013-06-08 11:00:00,
2013-06-08 07:06:00,67.8,66.9,28.76,WNW,292,0.0,0.0,97,0.00,,---,0.04,VWS V14.00,2013-06-08 11:06:00,
2013-06-08 07:12:00,67.6,66.8,28.76,West,270,0.0,0.0,97,0.00,,---,0.04,VWS V14.00,2013-06-08 11:12:00,
2013-06-08 07:18:00,67.6,66.5,28.76,West,270,0.0,0.0,96,0.00,,---,0.04,VWS V14.00,2013-06-08 11:18:00,
2013-06-08 07:24:00,67.8,66.9,28.76,WNW,292,0.0,1.3,97,0.00,,---,0.04,VWS V14.00,2013-06-08 11:24:00,
2013-06-08 07:30:00,67.8,66.9,28.76,WNW,292,0.0,1.3,97,0.00,,---,0.04,VWS V14.00,2013-06-08 11:30:00,
2013-06-08 07:36:00,68.2,67.0,28.76,WNW,292,0.0,1.3,96,0.00,,---,0.04,VWS V14.00,2013-06-08 11:36:00,
2013-06-08 07:42:00,68.4,66.9,28.76,WNW,292,0.0,1.3,95,0.00,,---,0.04,VWS V14.00,2013-06-08 11:42:00,
2013-06-08 07:48:00,68.5,66.8,28.76,WNW,292,0.0,1.3,94,0.00,,---,0.04,VWS V14.00,2013-06-08 11:48:00,
2013-06-08 07:54:00,68.7,66.9,28.76,WNW,292,0.0,1.3,94,0.00,,---,0.04,VWS V14.00,2013-06-08 11:54:00,
2013-06-08 07:59:00,69.1,67.3,28.79,WNW,292,0.0,1.3,94,0.00,,---,0.04,VWS V14.00,2013-06-08 11:59:00,
2013-06-08 08:06:00,69.4,67.6,28.79,WNW,292,0.0,0.0,94,0.00,,---,0.04,VWS V14.00,2013-06-08 12:06:00,
2013-06-08 08:12:00,69.8,67.7,28.79,WNW,292,0.0,0.0,93,0.00,,---,0.04,VWS V14.00,2013-06-08 12:12:00,
2013-06-08 08:18:00,70.5,68.4,28.79,WNW,292,0.0,0.0,93,0.00,,---,0.04,VWS V14.00,2013-06-08 12:18:00,
2013-06-08 08:24:00,71.1,68.3,28.79,WNW,292,0.0,0.0,91,0.00,,---,0.04,VWS V14.00,2013-06-08 12:24:00,
2013-06-08 08:30:00,71.6,68.8,28.79,WNW,292,0.0,0.0,91,0.00,,---,0.04,VWS V14.00,2013-06-08 12:30:00,
2013-06-08 08:36:00,72.3,69.2,28.79,WNW,292,0.0,0.0,90,0.00,,---,0.04,VWS V14.00,2013-06-08 12:36:00,
2013-06-08 08:43:00,72.9,69.4,28.79,WNW,292,0.0,0.0,89,0.00,,---,0.04,VWS V14.00,2013-06-08 12:43:00,
2013-06-08 08:49:00,73.6,69.5,28.79,WNW,292,0.0,0.0,87,0.00,,---,0.04,VWS V14.00,2013-06-08 12:49:00,
2013-06-08 08:55:00,73.9,69.5,28.79,WNW,292,0.0,0.0,86,0.00,,---,0.04,VWS V14.00,2013-06-08 12:55:00,
2013-06-08 09:00:00,74.5,69.7,28.79,WNW,292,0.0,0.0,85,0.00,,---,0.04,VWS V14.00,2013-06-08 13:00:00,
2013-06-08 09:07:00,75.0,69.9,28.79,WNW,292,0.0,0.0,84,0.00,,---,0.04,VWS V14.00,2013-06-08 13:07:00,
2013-06-08 09:13:00,75.6,69.7,28.82,WNW,292,0.0,0.0,82,0.00,,---,0.04,VWS V14.00,2013-06-08 13:13:00,
2013-06-08 09:19:00,75.9,69.7,28.82,WNW,292,0.0,0.0,81,0.00,,---,0.04,VWS V14.00,2013-06-08 13:19:00,
2013-06-08 09:25:00,76.1,69.5,28.82,ESE,112,0.0,0.0,80,0.00,,---,0.04,VWS V14.00,2013-06-08 13:25:00,
2013-06-08 09:31:00,76.1,69.5,28.82,ESE,112,0.0,0.0,80,0.00,,---,0.04,VWS V14.00,2013-06-08 13:31:00,
2013-06-08 09:37:00,75.9,69.3,28.82,ESE,112,0.0,0.0,80,0.00,,---,0.04,VWS V14.00,2013-06-08 13:37:00,
2013-06-08 09:43:00,76.1,69.5,28.82,ESE,112,0.0,0.0,80,0.00,,---,0.04,VWS V14.00,2013-06-08 13:43:00,
2013-06-08 09:49:00,76.8,70.2,28.82,ESE,112,0.0,0.0,80,0.00,,---,0.04,VWS V14.00,2013-06-08 13:49:00,
2013-06-08 09:55:00,77.2,70.2,28.82,ESE,112,0.0,0.0,79,0.00,,---,0.04,VWS V14.00,2013-06-08 13:55:00,
2013-06-08 10:00:00,77.2,69.8,28.82,ESE,112,0.0,0.0,78,0.00,,---,0.04,VWS V14.00,2013-06-08 14:00:00,
2013-06-08 10:07:00,77.4,69.6,28.82,ESE,112,0.0,0.0,77,0.00,,---,0.04,VWS V14.00,2013-06-08 14:07:00,
2013-06-08 10:13:00,78.1,69.9,28.85,ESE,112,0.0,0.0,76,0.00,,---,0.04,VWS V14.00,2013-06-08 14:13:00,
2013-06-08 10:19:00,78.3,70.1,28.85,ESE,112,0.0,0.0,76,0.00,,---,0.04,VWS V14.00,2013-06-08 14:19:00,
2013-06-08 10:25:00,78.6,70.4,28.82,ESE,112,0.0,0.0,76,0.00,,---,0.04,VWS V14.00,2013-06-08 14:25:00,
2013-06-08 10:31:00,79.2,70.6,28.82,ESE,112,0.0,0.0,75,0.00,,---,0.04,VWS V14.00,2013-06-08 14:31:00,
2013-06-08 10:37:00,79.2,70.6,28.82,ESE,112,0.0,0.0,75,0.00,,---,0.04,VWS V14.00,2013-06-08 14:37:00,
2013-06-08 10:43:00,79.2,70.2,28.85,ESE,112,0.0,0.0,74,0.00,,---,0.04,VWS V14.00,2013-06-08 14:43:00,
2013-06-08 10:49:00,79.0,70.4,28.85,SW,225,0.9,0.9,75,0.00,,---,0.04,VWS V14.00,2013-06-08 14:49:00,
2013-06-08 10:55:00,79.3,70.7,28.85,SW,225,0.9,0.9,75,0.00,,---,0.04,VWS V14.00,2013-06-08 14:55:00,
2013-06-08 11:01:00,79.9,70.5,28.85,SW,225,0.9,0.9,73,0.00,,---,0.04,VWS V14.00,2013-06-08 15:01:00,
2013-06-08 11:07:00,79.9,70.1,28.85,SW,225,0.9,0.9,72,0.00,,---,0.04,VWS V14.00,2013-06-08 15:07:00,
2013-06-08 11:13:00,80.1,70.6,28.85,SW,225,0.9,0.9,73,0.00,,---,0.04,VWS V14.00,2013-06-08 15:13:00,
2013-06-08 11:19:00,80.1,70.6,28.85,South,180,1.1,1.1,73,0.00,,---,0.04,VWS V14.00,2013-06-08 15:19:00,
2013-06-08 11:25:00,80.4,70.6,28.85,South,180,1.1,1.1,72,0.00,,---,0.04,VWS V14.00,2013-06-08 15:25:00,
2013-06-08 11:31:00,80.8,70.1,28.85,South,180,1.1,1.1,70,0.00,,---,0.04,VWS V14.00,2013-06-08 15:31:00,
2013-06-08 11:37:00,81.0,70.7,28.85,South,180,1.1,1.1,71,0.00,,---,0.04,VWS V14.00,2013-06-08 15:37:00,
2013-06-08 11:43:00,81.1,70.8,28.85,South,180,1.1,1.1,71,0.00,,---,0.04,VWS V14.00,2013-06-08 15:43:00,
2013-06-08 11:49:00,80.8,70.1,28.85,SW,225,2.5,2.5,70,0.00,,---,0.04,VWS V14.00,2013-06-08 15:49:00,
2013-06-08 11:55:00,81.0,70.3,28.85,SW,225,2.5,2.5,70,0.00,,---,0.04,VWS V14.00,2013-06-08 15:55:00,
2013-06-08 12:01:00,81.1,70.4,28.85,SW,225,2.5,2.5,70,0.00,,---,0.04,VWS V14.00,2013-06-08 16:01:00,
2013-06-08 12:07:00,81.0,69.8,28.85,SW,225,2.5,2.5,69,0.00,,---,0.04,VWS V14.00,2013-06-08 16:07:00,
2013-06-08 12:13:00,80.8,69.7,28.85,SW,225,2.5,2.5,69,0.00,,---,0.04,VWS V14.00,2013-06-08 16:13:00,
2013-06-08 12:19:00,80.6,69.5,28.85,SW,225,2.5,2.5,69,0.00,,---,0.04,VWS V14.00,2013-06-08 16:19:00,
2013-06-08 12:25:00,81.1,70.4,28.85,SW,225,2.5,2.5,70,0.00,,---,0.04,VWS V14.00,2013-06-08 16:25:00,
2013-06-08 12:31:00,81.3,70.2,28.85,SW,225,2.5,2.5,69,0.00,,---,0.04,VWS V14.00,2013-06-08 16:31:00,
2013-06-08 12:37:00,81.7,70.5,28.85,SW,225,2.5,2.5,69,0.00,,---,0.04,VWS V14.00,2013-06-08 16:37:00,
2013-06-08 12:43:00,82.2,71.0,28.85,SW,225,2.5,2.5,69,0.00,,---,0.04,VWS V14.00,2013-06-08 16:43:00,
2013-06-08 12:50:00,82.4,71.2,28.85,NW,315,1.6,2.5,69,0.00,,---,0.04,VWS V14.00,2013-06-08 16:50:00,
2013-06-08 12:56:00,82.8,71.6,28.85,NW,315,1.6,2.5,69,0.00,,---,0.04,VWS V14.00,2013-06-08 16:56:00,
2013-06-08 13:02:00,83.1,71.5,28.85,NW,315,1.6,1.6,68,0.00,,---,0.04,VWS V14.00,2013-06-08 17:02:00,
2013-06-08 13:08:00,83.3,71.2,28.85,NW,315,1.6,1.6,67,0.00,,---,0.04,VWS V14.00,2013-06-08 17:08:00,
2013-06-08 13:14:00,83.1,71.0,28.85,NW,315,1.6,1.6,67,0.00,,---,0.04,VWS V14.00,2013-06-08 17:14:00,
2013-06-08 13:20:00,83.1,71.0,28.85,NW,315,1.6,1.6,67,0.00,,---,0.04,VWS V14.00,2013-06-08 17:20:00,
2013-06-08 13:26:00,83.1,71.5,28.85,NW,315,1.6,1.6,68,0.00,,---,0.04,VWS V14.00,2013-06-08 17:26:00,
2013-06-08 13:32:00,83.1,71.0,28.85,WSW,248,2.7,2.7,67,0.00,,---,0.04,VWS V14.00,2013-06-08 17:32:00,
2013-06-08 13:38:00,83.5,71.4,28.85,WSW,248,2.7,2.7,67,0.00,,---,0.04,VWS V14.00,2013-06-08 17:38:00,
2013-06-08 13:44:00,83.5,71.4,28.85,WSW,248,2.7,2.7,67,0.00,,---,0.04,VWS V14.00,2013-06-08 17:44:00,
2013-06-08 13:50:00,83.8,71.7,28.85,WSW,248,2.7,2.7,67,0.00,,---,0.04,VWS V14.00,2013-06-08 17:50:00,
2013-06-08 13:56:00,83.8,72.2,28.85,ENE,68,2.0,2.7,68,0.00,,---,0.04,VWS V14.00,2013-06-08 17:56:00,
2013-06-08 14:02:00,83.7,71.6,28.85,ENE,68,2.0,2.0,67,0.00,,---,0.04,VWS V14.00,2013-06-08 18:02:00,
2013-06-08 14:08:00,83.8,71.7,28.85,ENE,68,2.0,2.0,67,0.00,,---,0.04,VWS V14.00,2013-06-08 18:08:00,
2013-06-08 14:14:00,83.8,71.7,28.85,ENE,68,2.0,2.0,67,0.00,,---,0.04,VWS V14.00,2013-06-08 18:14:00,
2013-06-08 14:20:00,83.8,71.7,28.85,ENE,68,2.0,2.0,67,0.00,,---,0.04,VWS V14.00,2013-06-08 18:20:00,
2013-06-08 14:26:00,83.8,71.3,28.82,ESE,112,5.6,5.6,66,0.00,,---,0.04,VWS V14.00,2013-06-08 18:26:00,
2013-06-08 14:32:00,83.8,71.3,28.82,ESE,112,5.6,5.6,66,0.00,,---,0.04,VWS V14.00,2013-06-08 18:32:00,
2013-06-08 14:38:00,83.8,71.3,28.82,ESE,112,5.6,5.6,66,0.00,,---,0.04,VWS V14.00,2013-06-08 18:38:00,
2013-06-08 14:44:00,83.7,71.6,28.85,ESE,112,5.6,5.6,67,0.00,,---,0.04,VWS V14.00,2013-06-08 18:44:00,
2013-06-08 14:50:00,83.7,71.6,28.85,East,90,1.6,5.6,67,0.00,,---,0.04,VWS V14.00,2013-06-08 18:50:00,
2013-06-08 14:56:00,83.7,71.1,28.82,SE,135,2.7,5.6,66,0.00,,---,0.04,VWS V14.00,2013-06-08 18:56:00,
2013-06-08 15:02:00,82.9,70.9,28.82,SE,135,2.7,2.7,67,0.00,,---,0.04,VWS V14.00,2013-06-08 19:02:00,
2013-06-08 15:08:00,82.9,70.9,28.82,SE,135,2.5,2.7,67,0.00,,---,0.04,VWS V14.00,2013-06-08 19:08:00,
2013-06-08 15:14:00,82.8,70.7,28.82,ESE,112,2.0,2.7,67,0.00,,---,0.04,VWS V14.00,2013-06-08 19:14:00,
2013-06-08 15:20:00,82.8,70.7,28.82,ESE,112,2.0,2.7,67,0.00,,---,0.04,VWS V14.00,2013-06-08 19:20:00,
2013-06-08 15:29:00,83.3,71.6,28.82,SE,135,2.2,2.7,68,0.00,,---,0.04,VWS V14.00,2013-06-08 19:29:00,
2013-06-08 15:35:00,83.7,71.6,28.82,SE,135,2.2,2.7,67,0.00,,---,0.04,VWS V14.00,2013-06-08 19:35:00,
2013-06-08 15:41:00,83.8,71.7,28.82,ENE,68,3.4,3.4,67,0.00,,---,0.04,VWS V14.00,2013-06-08 19:41:00,
2013-06-08 15:47:00,83.8,71.7,28.82,NNE,22,1.1,3.4,67,0.00,,---,0.04,VWS V14.00,2013-06-08 19:47:00,
2013-06-08 15:53:00,83.3,71.2,28.82,ESE,112,2.5,3.4,67,0.00,,---,0.04,VWS V14.00,2013-06-08 19:53:00,
2013-06-08 15:59:00,83.1,71.0,28.82,ESE,112,2.5,3.4,67,0.00,,---,0.04,VWS V14.00,2013-06-08 19:59:00,
2013-06-08 16:05:00,82.9,71.3,28.82,West,270,0.9,2.5,68,0.00,,---,0.04,VWS V14.00,2013-06-08 20:05:00,
2013-06-08 16:11:00,82.8,71.1,28.82,West,270,0.9,2.5,68,0.00,,---,0.04,VWS V14.00,2013-06-08 20:11:00,
2013-06-08 16:17:00,82.8,71.1,28.82,West,270,0.9,2.5,68,0.00,,---,0.04,VWS V14.00,2013-06-08 20:17:00,
2013-06-08 16:23:00,82.8,71.1,28.82,West,270,0.9,2.5,68,0.00,,---,0.04,VWS V14.00,2013-06-08 20:23:00,
2013-06-08 16:30:00,82.6,71.0,28.85,West,270,0.9,2.5,68,0.00,,---,0.04,VWS V14.00,2013-06-08 20:30:00,
2013-06-08 16:36:00,82.6,70.5,28.85,West,270,0.9,2.5,67,0.00,,---,0.04,VWS V14.00,2013-06-08 20:36:00,
2013-06-08 16:42:00,82.8,71.1,28.85,West,270,0.9,2.5,68,0.00,,---,0.04,VWS V14.00,2013-06-08 20:42:00,
2013-06-08 16:48:00,82.8,70.7,28.85,West,270,0.9,2.5,67,0.00,,---,0.04,VWS V14.00,2013-06-08 20:48:00,
2013-06-08 16:54:00,83.1,71.5,28.85,North,0,0.9,2.5,68,0.00,,---,0.04,VWS V14.00,2013-06-08 20:54:00,
2013-06-08 16:59:00,83.3,71.6,28.85,North,0,0.9,2.5,68,0.00,,---,0.04,VWS V14.00,2013-06-08 20:59:00,
2013-06-08 17:06:00,83.3,71.2,28.85,NNW,338,5.4,5.4,67,0.00,,---,0.04,VWS V14.00,2013-06-08 21:06:00,
2013-06-08 17:12:00,83.1,71.0,28.85,WSW,248,3.1,5.4,67,0.00,,---,0.04,VWS V14.00,2013-06-08 21:12:00,
2013-06-08 17:18:00,83.1,71.0,28.85,WSW,248,3.1,5.4,67,0.00,,---,0.04,VWS V14.00,2013-06-08 21:18:00,
2013-06-08 17:24:00,83.1,71.0,28.85,WSW,248,3.1,5.4,67,0.00,,---,0.04,VWS V14.00,2013-06-08 21:24:00,
2013-06-08 17:30:00,82.9,70.9,28.85,WSW,248,3.1,5.4,67,0.00,,---,0.04,VWS V14.00,2013-06-08 21:30:00,
2013-06-08 17:36:00,82.9,71.3,28.85,NW,315,1.3,5.4,68,0.00,,---,0.04,VWS V14.00,2013-06-08 21:36:00,
2013-06-08 17:42:00,82.9,71.3,28.82,West,270,1.1,5.4,68,0.00,,---,0.04,VWS V14.00,2013-06-08 21:42:00,
2013-06-08 17:48:00,83.1,71.5,28.82,West,270,1.1,5.4,68,0.00,,---,0.04,VWS V14.00,2013-06-08 21:48:00,
2013-06-08 17:54:00,82.9,71.3,28.82,West,270,1.1,5.4,68,0.00,,---,0.04,VWS V14.00,2013-06-08 21:54:00,
2013-06-08 17:59:00,82.9,71.3,28.82,East,90,3.6,5.4,68,0.00,,---,0.04,VWS V14.00,2013-06-08 21:59:00,
2013-06-08 18:06:00,82.8,70.7,28.82,East,90,3.6,3.6,67,0.00,,---,0.04,VWS V14.00,2013-06-08 22:06:00,
2013-06-08 18:12:00,82.6,70.5,28.85,East,90,3.6,3.6,67,0.00,,---,0.04,VWS V14.00,2013-06-08 22:12:00,
2013-06-08 18:18:00,82.6,70.5,28.85,East,90,3.6,3.6,67,0.00,,---,0.04,VWS V14.00,2013-06-08 22:18:00,
2013-06-08 18:24:00,82.4,70.3,28.85,East,90,3.6,3.6,67,0.00,,---,0.04,VWS V14.00,2013-06-08 22:24:00,
2013-06-08 18:30:00,82.2,70.6,28.85,East,90,3.6,3.6,68,0.00,,---,0.04,VWS V14.00,2013-06-08 22:30:00,
2013-06-08 18:36:00,82.0,70.4,28.85,East,90,3.6,3.6,68,0.00,,---,0.04,VWS V14.00,2013-06-08 22:36:00,
2013-06-08 18:42:00,81.9,70.7,28.82,East,90,3.6,3.6,69,0.00,,---,0.04,VWS V14.00,2013-06-08 22:42:00,
2013-06-08 18:48:00,81.7,70.5,28.82,East,90,3.6,3.6,69,0.00,,---,0.04,VWS V14.00,2013-06-08 22:48:00,
2013-06-08 18:54:00,81.7,70.9,28.82,East,90,3.6,3.6,70,0.00,,---,0.04,VWS V14.00,2013-06-08 22:54:00,
2013-06-08 19:00:00,81.5,70.8,28.85,East,90,3.6,3.6,70,0.00,,---,0.04,VWS V14.00,2013-06-08 23:00:00,
2013-06-08 19:06:00,81.3,71.0,28.85,East,90,3.6,3.6,71,0.00,,---,0.04,VWS V14.00,2013-06-08 23:06:00,
2013-06-08 19:12:00,81.1,70.4,28.85,East,90,3.6,3.6,70,0.00,,---,0.04,VWS V14.00,2013-06-08 23:12:00,
2013-06-08 19:18:00,81.0,70.3,28.85,East,90,3.6,3.6,70,0.00,,---,0.04,VWS V14.00,2013-06-08 23:18:00,
2013-06-08 19:24:00,81.0,70.3,28.85,East,90,3.6,3.6,70,0.00,,---,0.04,VWS V14.00,2013-06-08 23:24:00,
2013-06-08 19:30:00,80.8,70.1,28.85,East,90,3.6,3.6,70,0.00,,---,0.04,VWS V14.00,2013-06-08 23:30:00,
2013-06-08 19:36:00,80.6,69.9,28.85,East,90,3.6,3.6,70,0.00,,---,0.04,VWS V14.00,2013-06-08 23:36:00,
2013-06-08 19:42:00,80.2,70.4,28.85,East,90,3.6,3.6,72,0.00,,---,0.04,VWS V14.00,2013-06-08 23:42:00,
2013-06-08 19:48:00,79.9,70.5,28.85,East,90,3.6,3.6,73,0.00,,---,0.04,VWS V14.00,2013-06-08 23:48:00,
2013-06-08 19:54:00,79.7,70.3,28.85,East,90,3.6,3.6,73,0.00,,---,0.04,VWS V14.00,2013-06-08 23:54:00,
2013-06-08 20:00:00,79.5,70.5,28.85,East,90,3.6,3.6,74,0.00,,---,0.04,VWS V14.00,2013-06-09 00:00:00,
2013-06-08 20:06:00,79.2,70.6,28.85,East,90,3.6,3.6,75,0.00,,---,0.04,VWS V14.00,2013-06-09 00:06:00,
2013-06-08 20:13:00,79.0,70.4,28.85,East,90,3.6,3.6,75,0.00,,---,0.04,VWS V14.00,2013-06-09 00:13:00,
2013-06-08 20:19:00,78.8,70.2,28.85,East,90,3.6,3.6,75,0.00,,---,0.04,VWS V14.00,2013-06-09 00:19:00,
2013-06-08 20:25:00,78.6,70.0,28.85,East,90,3.6,3.6,75,0.00,,---,0.04,VWS V14.00,2013-06-09 00:25:00,
2013-06-08 20:31:00,78.4,69.9,28.88,East,90,3.6,3.6,75,0.00,,---,0.04,VWS V14.00,2013-06-09 00:31:00,
2013-06-08 20:37:00,78.1,69.5,28.88,East,90,3.6,3.6,75,0.00,,---,0.04,VWS V14.00,2013-06-09 00:37:00,
2013-06-08 20:43:00,77.7,69.2,28.88,East,90,3.6,3.6,75,0.00,,---,0.04,VWS V14.00,2013-06-09 00:43:00,
2013-06-08 20:49:00,77.5,69.0,28.88,East,90,3.6,3.6,75,0.00,,---,0.04,VWS V14.00,2013-06-09 00:49:00,
2013-06-08 20:55:00,77.2,69.0,28.88,East,90,3.6,3.6,76,0.00,,---,0.04,VWS V14.00,2013-06-09 00:55:00,
2013-06-08 21:01:00,77.0,68.9,28.88,East,90,3.6,3.6,76,0.00,,---,0.04,VWS V14.00,2013-06-09 01:01:00,
2013-06-08 21:07:00,76.6,68.9,28.88,East,90,3.6,3.6,77,0.00,,---,0.04,VWS V14.00,2013-06-09 01:07:00,
2013-06-08 21:13:00,76.3,68.6,28.91,East,90,3.6,3.6,77,0.00,,---,0.04,VWS V14.00,2013-06-09 01:13:00,
2013-06-08 21:19:00,75.9,68.2,28.91,East,90,3.6,3.6,77,0.00,,---,0.04,VWS V14.00,2013-06-09 01:19:00,
2013-06-08 21:25:00,75.6,68.2,28.91,East,90,3.6,3.6,78,0.00,,---,0.04,VWS V14.00,2013-06-09 01:25:00,
2013-06-08 21:31:00,75.4,68.1,28.91,East,90,3.6,3.6,78,0.00,,---,0.04,VWS V14.00,2013-06-09 01:31:00,
2013-06-08 21:37:00,75.0,68.1,28.91,East,90,3.6,3.6,79,0.00,,---,0.04,VWS V14.00,2013-06-09 01:37:00,
2013-06-08 21:43:00,74.8,68.3,28.91,East,90,3.6,3.6,80,0.00,,---,0.04,VWS V14.00,2013-06-09 01:43:00,
2013-06-08 21:49:00,74.8,68.3,28.91,East,90,3.6,3.6,80,0.00,,---,0.04,VWS V14.00,2013-06-09 01:49:00,
2013-06-08 21:55:00,74.7,68.1,28.91,East,90,3.6,3.6,80,0.00,,---,0.04,VWS V14.00,2013-06-09 01:55:00,
2013-06-08 22:01:00,74.5,67.9,28.91,East,90,3.6,3.6,80,0.00,,---,0.04,VWS V14.00,2013-06-09 02:01:00,
2013-06-08 22:07:00,74.1,67.6,28.91,WNW,292,0.0,3.6,80,0.00,,---,0.04,VWS V14.00,2013-06-09 02:07:00,
2013-06-08 22:13:00,73.9,67.4,28.94,WNW,292,0.0,3.6,80,0.00,,---,0.04,VWS V14.00,2013-06-09 02:13:00,
2013-06-08 22:19:00,73.9,67.8,28.94,NW,315,0.0,3.6,81,0.00,,---,0.04,VWS V14.00,2013-06-09 02:19:00,
2013-06-08 22:25:00,73.8,67.6,28.94,NW,315,0.0,3.6,81,0.00,,---,0.04,VWS V14.00,2013-06-09 02:25:00,
2013-06-08 22:31:00,73.4,67.2,28.94,NW,315,0.0,3.6,81,0.00,,---,0.04,VWS V14.00,2013-06-09 02:31:00,
2013-06-08 22:37:00,73.2,67.4,28.94,NW,315,0.0,3.6,82,0.00,,---,0.04,VWS V14.00,2013-06-09 02:37:00,
2013-06-08 22:43:00,73.2,67.4,28.94,NW,315,0.0,3.6,82,0.00,,---,0.04,VWS V14.00,2013-06-09 02:43:00,
2013-06-08 22:49:00,73.2,67.4,28.94,NW,315,0.0,3.6,82,0.00,,---,0.04,VWS V14.00,2013-06-09 02:49:00,
2013-06-08 22:55:00,73.0,67.2,28.94,NW,315,0.0,3.6,82,0.00,,---,0.04,VWS V14.00,2013-06-09 02:55:00,
2013-06-08 23:01:00,73.0,67.2,28.94,NW,315,0.0,0.0,82,0.00,,---,0.04,VWS V14.00,2013-06-09 03:01:00,
2013-06-08 23:07:00,72.9,67.1,28.94,NW,315,0.0,0.0,82,0.00,,---,0.04,VWS V14.00,2013-06-09 03:07:00,
2013-06-08 23:13:00,72.7,67.2,28.94,NW,315,0.0,0.0,83,0.00,,---,0.04,VWS V14.00,2013-06-09 03:13:00,
2013-06-08 23:19:00,72.5,67.1,28.94,NW,315,0.0,0.0,83,0.00,,---,0.04,VWS V14.00,2013-06-09 03:19:00,
2013-06-08 23:25:00,72.3,66.9,28.94,NW,315,0.0,0.0,83,0.00,,---,0.04,VWS V14.00,2013-06-09 03:25:00,
2013-06-08 23:31:00,72.3,66.9,28.94,NW,315,0.0,0.0,83,0.00,,---,0.04,VWS V14.00,2013-06-09 03:31:00,
2013-06-08 23:38:00,72.3,66.9,28.94,NW,315,0.0,0.0,83,0.00,,---,0.04,VWS V14.00,2013-06-09 03:38:00,
2013-06-08 23:44:00,72.1,66.7,28.94,NW,315,0.0,0.0,83,0.00,,---,0.04,VWS V14.00,2013-06-09 03:44:00,
2013-06-08 23:50:00,72.0,66.5,28.94,NW,315,0.0,0.0,83,0.00,,---,0.04,VWS V14.00,2013-06-09 03:50:00,
2013-06-08 23:56:00,72.0,66.5,28.94,NW,315,0.0,0.0,83,0.00,,---,0.04,VWS V14.00,2013-06-09 03:56:00,